Location: Bun Machan
(52.1403°N, 7.3744°W)
Time: 08:42:42
(UTC+00:00)

CZ-2D R/B - Pass Details

Date: 14 July 2020
Orbit: 792 x 845 km, 98.7° (Epoch: 04 August)

Event Time Altitude Azimuth Distance (km) Brightness Sun altitude
Rises 00:38:40 0° 28° (NNE) 3,349 6.5 -16.2°
Reaches altitude 10° 00:42:08 10° 52° (NE) 2,422 5.1 -16.2°
Maximum altitude 00:45:07 15° 86° (E) 2,098 4.3 -16.2°
Drops below altitude 10° 00:48:06 10° 120° (ESE) 2,431 4.3 -16.2°
Enters shadow 00:49:08 - 129° (SE) 2,670 4.5 -16.2°
